Regional Weather Roundup
Issued by NWS Sioux Falls, SD

Home | Current Version | Previous Version | Text Only | Print | Product List | Glossary Off
Versions: 1 2 3 4 5 6 7 8 9 10 11 12 13 14 15 16 17 18 19 20 21 22 23 24 25 26 27 28 29 30 31 32 33 34 35 36 37 38 39 40 41 42 43 44 45 46 47 48 49 50

000
ASUS43 KFSD 061802
RWRFSD

WEATHER ROUNDUP FOR SE SOUTH DAKOTA/SW MINNESOTA/NW IOWA
NATIONAL WEATHER SERVICE SIOUX FALLS SD
100 PM CDT FRI MAY 06 2016

NOTE: "FAIR" INDICATES FEW OR NO CLOUDS BELOW 12,000 FEET WITH NO
SIGNIFICANT WEATHER AND OR OBSTRUCTIONS TO VISIBILITY.


SDZ038>040-050-052>070-061900-
SOUTHEAST SOUTH DAKOTA

CITY           SKY/WX    TMP DP  RH WIND       PRES   REMARKS
BROOKINGS      SUNNY     83  53  35 W20G25    29.81F
CHAMBERLAIN    NOT AVBL
HURON          SUNNY     84  56  38 SW12      29.81F
6HR MIN TEMP:  60; 6HR MAX TEMP:  84;

MADISON        FAIR      82  54  36 W17G28    29.85S
MITCHELL       SUNNY     85  55  35 SW18      29.83F
6HR MIN TEMP:  63; 6HR MAX TEMP:  85;

SIOUX FALLS    MOSUNNY   80  53  39 SW14G28   29.85F
6HR MIN TEMP:  58; 6HR MAX TEMP:  81;

WINNER         FAIR      84  52  33 SW15G23   29.87F
YANKTON        SUNNY     82  52  34 SW12G17   29.87F
$$

MNZ071-072-080-081-089-090-097-098-061900-
SOUTHWEST MINNESOTA

CITY           SKY/WX    TMP DP  RH WIND       PRES   REMARKS
FAIRMONT       SUNNY     84  43  23 SW23G32   29.86F
JACKSON        SUNNY     82  39  21 SW24      29.87F
LUVERNE        SUNNY     81  48  32 SW22G30   29.87F
MARSHALL       SUNNY     86  52  30 W32G39    29.75F
6HR MIN TEMP:  65; 6HR MAX TEMP:  86;

MONTEVIDEO     SUNNY     86  52  30 NW14      29.77F
REDWOOD FALLS  SUNNY     88  48  25 SW23G37   29.76F
TRACY          SUNNY     86  51  29 SW32G43   29.80F
WINDOM         SUNNY     84  46  26 SW22G31   29.84F
WORTHINGTON    SUNNY     83  51  33 SW29G35   29.86F
$$

IAZ001>003-012>014-020>022-031-032-NEZ013-014-SDZ071-061900-
NORTHWEST IOWA

CITY           SKY/WX    TMP DP  RH WIND       PRES   REMARKS
DENISON        SUNNY     81  45  28 SW20      29.93F
ESTHERVILLE    SUNNY     83  46  27 SW29G38   29.87F
SIOUX CITY     SUNNY     83  52  34 SW18G29   29.92F
6HR MIN TEMP:  50; 6HR MAX TEMP:  83;

SPENCER        SUNNY     85  47  26 W25G35    29.89F
6HR MIN TEMP:  54; 6HR MAX TEMP:  85;

STORM LAKE     SUNNY     82  45  26 SW28G36   29.93F
$$

ABBREVIATIONS USED IN REMARKS
   TC - TEMPERATURE IN CELSIUS
  WCI - WIND CHILL INDEX
   HX - HEAT INDEX
  VSB - VISIBILITY





USA.gov is the U.S. government's official web portal to all federal, state and local government web resources and services.